Photometre #848[NE_1.6_Dp] Watnall_MO AOT

File : 20220919_848.hum

19/09/2022,06:44:34,TEMP=11.2,BA=5.68,STAT.A,ExtBa=12.30
19/09/2022,06:48:51,TEMP=11.4,BA=5.68,STAT.A,ExtBa=12.30
19/09/2022,06:53:52,TEMP=11.5,BA=5.52,STAT.A,ExtBa=12.30
19/09/2022,06:59:49,TEMP=11.6,BA=5.52,STAT.A,ExtBa=12.30
19/09/2022,07:07:01,TEMP=11.7,BA=5.52,STAT.A,ExtBa=12.30
19/09/2022,07:15:56,TEMP=11.8,BA=5.68,STAT.A,ExtBa=12.30
19/09/2022,07:27:14,TEMP=12.0,BA=5.68,STAT.B,ExtBa=12.30
19/09/2022,07:32:40,TEMP=12.1,BA=5.68,STAT.A,ExtBa=12.30
19/09/2022,07:38:46,TEMP=12.3,BA=5.68,STAT.A,ExtBa=12.30
19/09/2022,07:45:41,TEMP=12.4,BA=5.52,STAT.A,ExtBa=12.30
19/09/2022,07:53:35,TEMP=12.6,BA=5.68,STAT.A,ExtBa=12.30
19/09/2022,08:02:42,TEMP=12.7,BA=5.68,STAT.C,ExtBa=12.30
19/09/2022,08:13:25,TEMP=12.7,BA=5.68,STAT.A,ExtBa=12.30
19/09/2022,08:24:23,TEMP=12.8,BA=5.68,STAT.D,ExtBa=12.30
19/09/2022,08:26:22,TEMP=13.3,BA=5.68,STAT.A,ExtBa=12.20
19/09/2022,08:39:23,TEMP=13.3,BA=5.68,STAT.D,ExtBa=12.30
19/09/2022,08:41:50,TEMP=13.7,BA=5.52,STAT.A,ExtBa=12.20
19/09/2022,08:54:23,TEMP=13.7,BA=5.68,STAT.D,ExtBa=12.30
19/09/2022,08:59:36,TEMP=14.0,BA=5.68,STAT.F,ExtBa=12.20
19/09/2022,09:12:23,TEMP=14.4,BA=5.68,STAT.D,ExtBa=12.30
19/09/2022,09:14:34,TEMP=14.9,BA=5.68,STAT.D,ExtBa=12.20
19/09/2022,09:27:24,TEMP=15.0,BA=5.68,STAT.D,ExtBa=12.30
19/09/2022,09:29:34,TEMP=15.4,BA=5.68,STAT.D,ExtBa=12.20
19/09/2022,09:42:23,TEMP=15.5,BA=5.68,STAT.D,ExtBa=12.30
19/09/2022,09:44:34,TEMP=15.9,BA=5.68,STAT.D,ExtBa=12.20
19/09/2022,09:57:24,TEMP=15.2,BA=5.68,STAT.D,ExtBa=12.30
19/09/2022,09:59:36,TEMP=15.5,BA=5.68,STAT.F,ExtBa=12.20
19/09/2022,10:06:24,TEMP=15.0,BA=5.52,STAT.D,ExtBa=12.30
19/09/2022,10:14:35,TEMP=14.8,BA=5.68,STAT.D,ExtBa=12.30
19/09/2022,10:27:25,TEMP=14.9,BA=5.48,STAT.D,ExtBa=12.30
19/09/2022,10:29:35,TEMP=15.2,BA=5.48,STAT.D,ExtBa=12.20
19/09/2022,10:42:24,TEMP=14.8,BA=5.68,STAT.D,ExtBa=12.30
19/09/2022,10:44:35,TEMP=15.2,BA=5.68,STAT.D,ExtBa=12.20
19/09/2022,10:57:24,TEMP=15.2,BA=5.68,STAT.D,ExtBa=12.30
19/09/2022,10:59:36,TEMP=15.6,BA=5.68,STAT.F,ExtBa=12.20
19/09/2022,11:12:24,TEMP=15.3,BA=5.68,STAT.D,ExtBa=12.30
19/09/2022,11:14:35,TEMP=15.6,BA=5.68,STAT.D,ExtBa=12.20
19/09/2022,11:27:24,TEMP=15.0,BA=5.68,STAT.D,ExtBa=12.30
19/09/2022,11:29:35,TEMP=15.3,BA=5.68,STAT.D,ExtBa=12.20
19/09/2022,11:42:24,TEMP=15.1,BA=5.68,STAT.D,ExtBa=12.30
19/09/2022,11:44:35,TEMP=15.5,BA=5.68,STAT.D,ExtBa=12.20
19/09/2022,11:57:25,TEMP=15.4,BA=5.68,STAT.D,ExtBa=12.30
19/09/2022,11:59:36,TEMP=15.7,BA=5.68,STAT.F,ExtBa=12.30
19/09/2022,12:12:24,TEMP=15.5,BA=5.68,STAT.D,ExtBa=12.30
19/09/2022,12:14:35,TEMP=15.8,BA=5.68,STAT.D,ExtBa=12.20
19/09/2022,12:27:25,TEMP=15.3,BA=5.68,STAT.D,ExtBa=12.30
19/09/2022,12:29:35,TEMP=15.4,BA=5.68,STAT.D,ExtBa=12.20
19/09/2022,12:42:25,TEMP=15.5,BA=5.68,STAT.D,ExtBa=12.30
19/09/2022,12:44:35,TEMP=15.9,BA=5.68,STAT.D,ExtBa=12.20
19/09/2022,12:48:24,TEMP=16.1,BA=5.68,STAT.D,ExtBa=12.20
19/09/2022,12:59:36,TEMP=16.3,BA=5.52,STAT.F,ExtBa=12.30
19/09/2022,13:12:24,TEMP=16.3,BA=5.64,STAT.D,ExtBa=12.30
19/09/2022,13:14:35,TEMP=16.6,BA=5.64,STAT.D,ExtBa=12.20
19/09/2022,13:27:24,TEMP=16.6,BA=5.64,STAT.D,ExtBa=12.30
19/09/2022,13:29:35,TEMP=17.0,BA=5.64,STAT.D,ExtBa=12.20
19/09/2022,13:42:24,TEMP=16.6,BA=5.64,STAT.D,ExtBa=12.30
19/09/2022,13:44:35,TEMP=16.8,BA=5.64,STAT.D,ExtBa=12.20
19/09/2022,13:57:24,TEMP=16.1,BA=5.48,STAT.D,ExtBa=12.30
19/09/2022,13:59:36,TEMP=16.4,BA=5.48,STAT.F,ExtBa=12.20
19/09/2022,14:12:24,TEMP=15.8,BA=5.68,STAT.D,ExtBa=12.30
19/09/2022,14:14:35,TEMP=16.1,BA=5.68,STAT.D,ExtBa=12.20
19/09/2022,14:27:23,TEMP=16.0,BA=5.68,STAT.D,ExtBa=12.30
19/09/2022,14:29:34,TEMP=16.3,BA=5.68,STAT.D,ExtBa=12.20
19/09/2022,14:42:23,TEMP=16.2,BA=5.68,STAT.D,ExtBa=12.30
19/09/2022,14:44:34,TEMP=16.5,BA=5.68,STAT.D,ExtBa=12.20
19/09/2022,14:57:23,TEMP=16.2,BA=5.68,STAT.D,ExtBa=12.30
19/09/2022,14:59:36,TEMP=16.6,BA=5.68,STAT.F,ExtBa=12.20
19/09/2022,15:12:23,TEMP=16.7,BA=5.68,STAT.D,ExtBa=12.30
19/09/2022,15:15:23,TEMP=17.4,BA=5.68,STAT.D,ExtBa=12.20
19/09/2022,15:17:22,TEMP=17.9,BA=5.68,STAT.A,ExtBa=12.20
19/09/2022,15:30:23,TEMP=17.5,BA=5.64,STAT.D,ExtBa=12.30
19/09/2022,15:32:59,TEMP=17.6,BA=5.64,STAT.A,ExtBa=12.20
19/09/2022,15:45:23,TEMP=16.9,BA=5.64,STAT.D,ExtBa=12.30
19/09/2022,15:47:24,TEMP=17.5,BA=5.64,STAT.A,ExtBa=12.20
19/09/2022,15:56:30,TEMP=17.1,BA=5.56,STAT.C,ExtBa=12.20
19/09/2022,16:06:48,TEMP=17.3,BA=5.48,STAT.A,ExtBa=12.20
19/09/2022,16:13:30,TEMP=16.6,BA=5.60,STAT.A,ExtBa=12.20
19/09/2022,16:20:25,TEMP=16.4,BA=5.64,STAT.A,ExtBa=12.20
19/09/2022,16:26:30,TEMP=16.4,BA=5.64,STAT.A,ExtBa=12.20
19/09/2022,16:30:23,TEMP=16.6,BA=5.60,STAT.D,ExtBa=12.20
19/09/2022,16:32:26,TEMP=17.1,BA=5.60,STAT.B,ExtBa=12.20
19/09/2022,16:42:23,TEMP=17.2,BA=5.44,STAT.D,ExtBa=12.10
19/09/2022,16:44:15,TEMP=17.5,BA=5.44,STAT.A,ExtBa=12.10
19/09/2022,16:48:23,TEMP=17.2,BA=5.44,STAT.D,ExtBa=12.20
19/09/2022,16:51:23,TEMP=17.3,BA=5.44,STAT.D,ExtBa=12.20
19/09/2022,16:53:29,TEMP=17.6,BA=5.44,STAT.A,ExtBa=12.10
19/09/2022,16:57:23,TEMP=17.2,BA=5.44,STAT.D,ExtBa=12.20
19/09/2022,16:59:31,TEMP=17.5,BA=5.44,STAT.A,ExtBa=12.10
19/09/2022,17:03:23,TEMP=16.9,BA=5.44,STAT.D,ExtBa=12.20
19/09/2022,17:05:38,TEMP=17.0,BA=5.44,STAT.A,ExtBa=12.10
19/09/2022,17:10:19,TEMP=16.2,BA=5.56,STAT.A,ExtBa=12.20
19/09/2022,17:14:36,TEMP=15.9,BA=5.56,STAT.A,ExtBa=12.20